Regional Weather Roundup
Issued by NWS

Home | Current Version | Previous Version | Graphics & Text | Print | Product List | Glossary On
Versions: 1 2 3 4 5 6 7 8 9 10 11 12 13 14 15 16 17 18 19 20 21 22 23 24 25 26 27 28 29 30 31 32 33 34 35 36 37 38 39 40 41 42 43 44 45 46 47 48 49 50
000
ASUS43 KLMK 191102
RWRKY
KENTUCKY REGIONAL WEATHER ROUNDUP
NATIONAL WEATHER SERVICE LOUISVILLE KY
600 AM EST SUN NOV 19 2017

NOTE "FAIR" INDICATES FEW OR NO CLOUDS BELOW 12,000 FEET
WITH NO SIGNIFICANT WEATHER AND/OR OBSTRUCTIONS TO VISIBILITY.

KYZ001>023-026-027-061>063-070>075-191200-
WESTERN AND SOUTH CENTRAL KENTUCKY

CITY           SKY/WX    TMP DP  RH WIND       PRES   REMARKS
PADUCAH        CLEAR     37  23  56 NW12      30.10R WCI  29
HENDERSON      CLOUDY    37  30  75 NW9       30.07R WCI  30
OWENSBORO      CLOUDY    38  31  76 W13       30.05R WCI  30
HOPKINSVILLE   MOCLDY    37  30  75 NW6       30.06R WCI  33
BOWLING GREEN  CLEAR     40  32  73 W5        30.03R
GLASGOW        NOT AVBL
$$

KYZ024-025-028>034-038-045-046-053-191200-
NORTH CENTRAL KENTUCKY

CITY           SKY/WX    TMP DP  RH WIND       PRES   REMARKS
LOUISVILLE/SDF CLOUDY    41  32  70 W9        29.98R
LOUISVILLE/LOU CLOUDY    41  33  73 W6        29.98R
FORT KNOX      CLOUDY    39  31  72 W13G20    29.97R WCI  32
$$

KYZ035>037-039>044-047>052-055>060-089>105-191200-
NORTHEAST KENTUCKY

CITY           SKY/WX    TMP DP  RH WIND       PRES   REMARKS
LEXINGTON      CLOUDY    39  32  76 W8        29.94R WCI  33
COVINGTON      CLOUDY    38  31  76 W12       29.91R WCI  30
FRANKFORT      CLOUDY    39  29  67 W6        29.94R WCI  35
$$

KYZ054-064>069-076>088-106>120-191200-
SOUTHEAST KENTUCKY

CITY           SKY/WX    TMP DP  RH WIND       PRES   REMARKS
JACKSON        LGT RAIN  37  35  92 VRB5      29.90R WCI  33
LONDON         CLOUDY    39  33  79 NW13      29.95R WCI  31
SOMERSET       CLOUDY    37  30  75 NW5       29.99R WCI  34
MIDDLESBORO    CLOUDY    40  34  79 NW7       29.96R
MONTICELLO     CLOUDY    40  33  76 NW9G17    30.01R WCI  34
$$





USA.gov is the U.S. government's official web portal to all federal, state and local government web resources and services.